SB KEPS @ AMSAT $ORB25355.1 2Line Orbital Elements 25355.AMSAT QST de W1STR AMSAT Orbital Elements for Amateur Satellites in TLE Format From Orbital Analysis Office New England Sci-Tech STEM Education Center Natick MA December 21, 2025 To all radio amateurs These element sets describe the orbits of various satellites in use by the amateur radio community. For details see: www.amsat.org/keplerian-elements-formats/ A daily update of element sets is available at: www.amsat.org/tle/daily-bulletin.txt or without bulletin text: www.amsat.org/tle/dailytle.txt AO-07 1 07530U 74089B 25354.81932860 -.00000043 00000-0 20404-4 0 9991 2 07530 101.9963 1.1718 0012388 111.4060 60.8768 12.53694388338164 UO-11 1 14781U 84021B 25354.85119409 .00001146 00000-0 12400-3 0 9994 2 14781 97.7822 317.7540 0009061 59.5600 300.6512 14.90165762230560 AO-27 1 22825U 93061C 25354.41088819 .00000094 00000-0 53020-4 0 9993 2 22825 98.7136 56.6961 0007321 263.8924 96.1425 14.30879354681438 FO-29 1 24278U 96046B 25354.38852567 -.00000027 00000-0 87439-5 0 9997 2 24278 98.5458 222.4972 0349495 200.1071 158.6010 13.53262929448983 GO-32 1 25397U 98043D 25354.50401866 .00000040 00000-0 37448-4 0 9993 2 25397 98.9927 337.8955 0001814 45.0313 315.1012 14.24379082425893 ISS 1 25544U 98067A 25354.60225113 .00006881 00000-0 12984-3 0 9999 2 25544 51.6321 103.5427 0003193 277.2005 82.8620 15.49685042544071 NO-44 1 26931U 01043C 25354.69912529 .00000117 00000-0 74578-4 0 9995 2 26931 67.0515 345.8947 0007416 269.5347 90.4905 14.31858897264891 SO-50 1 27607U 02058C 25354.36114807 .00001456 00000-0 19159-3 0 9990 2 27607 64.5532 322.0423 0072562 295.1454 64.2136 14.82420220237949 CO-55 1 27844U 03031E 25354.80988735 .00000256 00000-0 13032-3 0 9994 2 27844 98.6761 0.6088 0009358 350.1244 9.9749 14.24185608166280 CO-57 1 27848U 03031J 25354.49916765 .00000215 00000-0 11361-3 0 9995 2 27848 98.6791 0.1579 0009608 9.1772 350.9580 14.23492587165953 RS-22 1 27939U 03042A 25354.87591225 .00001075 00000-0 17557-3 0 9998 2 27939 98.3359 169.2919 0012361 111.6028 24.8874 14.72991139189296 CO-58 1 28895U 05043F 25354.66714806 .00001175 00000-0 19558-3 0 9996 2 28895 98.2729 141.8793 0015136 54.6634 305.5985 14.71926340 75484 CO-65 1 32785U 08021C 25351.68477250 .00005656 00000-0 38073-3 0 9997 2 32785 97.8081 324.8433 0007829 290.5969 69.4418 15.07103756957832 CO-66 1 32791U 08021J 25354.44742117 .00012252 00000-0 48644-3 0 9993 2 32791 97.7443 339.8589 0002236 171.9570 188.1704 15.25493197959970 RS-30 1 32953U 08025A 25354.83890954 .00000052 00000-0 30010-3 0 9996 2 32953 82.5029 106.3861 0018716 343.0920 16.9534 12.43172126797537 SRMSAT 1 37841U 11058D 25354.52649405 .00000388 00000-0 66766-4 0 9996 2 37841 19.9724 60.8238 0011946 39.0399 89.0233 14.11513957732541 ZACUBE-1 1 39417U 13066B 25351.39749824 .00003280 00000-0 27002-3 0 9999 2 39417 97.8056 307.9496 0042001 132.1904 228.2897 14.99124350653477 Delfi-N3xt 1 39428U 13066N 25354.72275457 .00005352 00000-0 50197-3 0 9990 2 39428 97.8357 270.5755 0081095 79.5115 281.5228 14.91926068647987 GOMX-1 1 39430U 13066Q 25354.80507593 .00001946 00000-0 30295-3 0 9993 2 39430 97.6582 201.4259 0129183 290.5329 68.2054 14.68621591643725 LO-74 1 39440U 13066AA 25351.56788106 .00003439 00000-0 33426-3 0 9993 2 39440 97.8708 295.2332 0058016 269.4523 90.0047 14.92015584649893 AO-73 1 39444U 13066AE 25354.82734169 .00005148 00000-0 35024-3 0 9994 2 39444 97.8080 318.2055 0041190 89.5277 271.0669 15.06076236652780 DTUSAT-2 1 40030U 14033W 25351.70002679 .00007073 00000-0 41774-3 0 9998 2 40030 98.0754 333.4459 0009697 125.2587 234.9550 15.11812878625232 EO-80 1 40032U 14033Y 25354.42388264 .00006044 00000-0 35640-3 0 9991 2 40032 98.0645 335.7058 0009783 68.4432 291.7838 15.11936231625629 LILACSAT-2 1 40908U 15049K 25354.89768133 .00010385 00000-0 22234-3 0 9997 2 40908 97.4898 20.5318 0008120 166.7794 193.3669 15.44949851568161 IO-86 1 40931U 15052B 25151.18580175 .00001241 00000-0 78118-4 0 9996 2 40931 6.0006 24.0987 0012733 338.8432 21.1169 14.78805930523159 Horyu-4 1 41340U 16012D 25354.01968620 .00034530 00000-0 56476-3 0 9999 2 41340 30.9939 259.9732 0006825 304.4738 55.5266 15.51230224542683 Lapan A3 1 41603U 16040E 25354.86157910 .00002847 00000-0 95617-4 0 9994 2 41603 97.1424 352.1224 0008911 300.8487 59.1878 15.31611540527505 CAS-2T 1 41847U 16066G 25354.79852196 .00000766 00000-0 11824-3 0 9997 2 41847 98.4029 67.4605 0342736 310.6850 46.5017 14.44148202479041 TechnoSat 1 42829U 17042E 25354.71513476 .00002536 00000-0 18986-3 0 9993 2 42829 97.4054 154.5785 0017734 348.6257 11.4566 15.03470215459872 AO-91 1 43017U 17073E 25354.13825460 .00006760 00000-0 32051-3 0 9994 2 43017 97.4936 220.1669 0159393 224.8218 134.0047 15.09005085438353 S-Net D 1 43186U 18014G 25354.68296479 .00004395 00000-0 24267-3 0 9991 2 43186 97.5494 255.7074 0006901 280.5997 79.4457 15.14439426431720 S-Net B 1 43187U 18014H 25354.69114833 .00004111 00000-0 22737-3 0 9992 2 43187 97.5498 255.6958 0007508 274.7981 85.2393 15.14414656431729 S-Net A 1 43188U 18014J 25354.68263959 .00004437 00000-0 24489-3 0 9993 2 43188 97.5506 255.8653 0007399 275.1209 84.9178 15.14445920431725 S-Net C 1 43189U 18014K 25354.69413826 .00004056 00000-0 22432-3 0 9998 2 43189 97.5524 255.9234 0008801 266.0957 93.9269 15.14409842430273 Ten-Koh 1 43677U 18084G 25354.77337737 .00002005 00000-0 15850-3 0 9990 2 43677 98.0746 174.7192 0008922 3.0336 357.0940 15.01863610389379 PO-101 1 43678U 18084H 25354.86009303 .00002547 00000-0 21283-3 0 9994 2 43678 98.1022 178.6494 0007634 26.0902 334.0703 14.99477713389484 QO-100 1 43700U 18090A 25354.77039125 .00000168 00000-0 00000+0 0 9999 2 43700 0.0150 53.0799 0000993 239.6006 100.0598 1.00272400 25884 MinXSS-2 1 43758U 18099A 25354.18817808 .00017285 00000-0 51228-3 0 9998 2 43758 97.4793 61.6558 0009486 184.0807 176.0360 15.34873749386566 AO-95 1 43770U 18099N 25354.61671152 .00007303 00000-0 32215-3 0 9995 2 43770 97.4665 50.8412 0008216 253.7766 106.2567 15.22048137386011 SNUSat 2 1 43782U 18099AA 25354.63306848 .00006174 00000-0 30298-3 0 9991 2 43782 97.4340 45.9044 0010699 193.0040 167.0920 15.18401079385907 SnugLite 1 43784U 18099AC 25354.66755588 .00007300 00000-0 31848-3 0 9999 2 43784 97.4154 46.0139 0002985 170.9220 189.2070 15.22445353386116 ITASat 1 1 43786U 18099AE 25354.68387116 .00005063 00000-0 26525-3 0 9991 2 43786 97.4313 44.8299 0011928 252.6187 107.3741 15.16179030385838 EAGLET 1 1 43790U 18099AJ 25354.84947434 .00002601 00000-0 15857-3 0 9990 2 43790 97.4509 44.1785 0010177 237.8137 122.2107 15.11182725385380 ESEO 1 43792U 18099AL 25354.66815306 .00002092 00000-0 15744-3 0 9993 2 43792 97.4224 34.5276 0011581 218.6696 141.3702 15.03512343384972 JO-97 1 43803U 18099AX 25354.74490705 .00009905 00000-0 37537-3 0 9991 2 43803 97.4410 52.5360 0006503 172.1278 188.0064 15.27073345386335 Suomi 100 1 43804U 18099AY 25354.66909039 .00007925 00000-0 33459-3 0 9997 2 43804 97.4472 51.0685 0010882 183.0538 177.0634 15.23488669386193 ISAT 1 43879U 18111D 25354.78301987 .00025361 00000-0 58841-3 0 9991 2 43879 97.5920 274.8063 0004181 205.0936 155.0108 15.42372262383484 UWE-4 1 43880U 18111E 25354.71887497 .00016835 00000-0 50115-3 0 9993 2 43880 97.5868 271.4660 0007308 240.1125 119.9391 15.34759874383300 Sparrow 1 43881U 18111F 25354.75557669 .00029807 00000-0 63861-3 0 9998 2 43881 97.6106 278.5816 0001845 275.9289 84.1748 15.44720348383602 Prox-1 1 44339U 19036A 25354.03083144 .00009161 00000-0 10086-2 0 9998 2 44339 23.9949 226.4753 0006528 123.2474 236.8651 14.85360402346753 Taurus 1 1 44530U 19059C 25354.87563043 .00007326 00000-0 12496-2 0 9997 2 44530 98.6225 144.1781 0009147 149.7940 210.3792 14.69269768332438 TO-108 1 44881U 19093C 25354.84755678 .00001019 00000-0 12223-3 0 9990 2 44881 97.7759 66.2984 0012737 318.9221 41.1035 14.86121927324927 FloripaSat 1 1 44885U 19093G 25354.84172936 .00003300 00000-0 26071-3 0 9995 2 44885 97.8044 83.0741 0009639 308.5687 51.4672 15.01360302325860 RS-44 1 44909U 19096E 25354.36315210 .00000018 00000-0 30629-4 0 9994 2 44909 82.5215 98.5434 0217321 202.2263 156.9309 12.79746140279470 SALSAT 1 46495U 20068K 25353.48061531 .00006196 00000-0 24069-3 0 9996 2 46495 97.8779 341.1169 0009485 202.4725 157.6098 15.26432785287916 CSS (TIANHE-1) 1 48274U 21035A 25354.65636534 .00013883 00000-0 17373-3 0 9990 2 48274 41.4685 328.6338 0007728 100.5086 259.6623 15.59505050265261 TUBIN 1 48900U 21059X 25349.78845228 .07315651 27141-5 56139-3 0 9990 2 48900 97.6553 178.8839 0007270 265.1302 94.9166 16.40417761249824 CUTE 1 49263U 21088D 25354.73487191 .00018200 00000-0 23490-3 0 9994 2 49263 97.4346 77.9442 0004583 233.0156 127.0681 15.59028852234540 TeikyoSat 4 1 49396U 21102B 25354.82653450 .00001591 00000-0 10530-3 0 9997 2 49396 97.3887 26.1220 0012168 179.4156 180.7090 15.08676490225829 Z-Sat 1 49399U 21102E 25354.89328539 .00002294 00000-0 12065-3 0 9990 2 49399 97.3572 30.5911 0018131 144.2832 215.9618 15.16504461226405 KOSEN 1 1 49402U 21102H 25354.58395095 .00005347 00000-0 22468-3 0 9992 2 49402 97.3455 35.3109 0016164 115.6599 244.6310 15.23728518226797 HO-113 1 50466U 21131B 25354.84294355 .00000375 00000-0 13007-3 0 9997 2 50466 98.5056 83.2241 0003047 275.4438 84.6403 14.41121934209425 SNUGLITE 2 1 52899U 22065F 25354.66290133 .00000873 00000-0 17637-3 0 9992 2 52899 98.1932 135.1511 0006831 217.4411 142.6316 14.63855963184873 UmKA 1 (RS40S) 1 57172U 23091G 25354.78302164 .00004463 00000-0 22070-3 0 9998 2 57172 97.5330 49.2131 0014113 27.3184 332.8789 15.18266671136919 CubeBel-2 (EU11S) 1 57175U 23091K 25354.79641390 .00008426 00000-0 34791-3 0 9995 2 57175 97.5328 51.7863 0011505 30.2406 329.9493 15.24219828137088 RS-38S 1 57189U 23091Z 25354.88394167 .00010107 00000-0 35476-3 0 9997 2 57189 97.5355 56.3949 0008039 354.9350 5.1807 15.29587491137374 SONATE-2 1 59112U 24043Q 25354.61787845 .00019695 00000-0 41190-3 0 9994 2 59112 97.5335 131.1656 0009292 134.3401 225.8611 15.45471040100190 MO-122 1 60209U 24125G 25354.55306914 .00022790 00000-0 45528-3 0 9990 2 60209 97.2514 204.9331 0014747 149.4882 210.7229 15.46704880 81812 GRBBeta 1 60237U 24128C 25354.79179030 .00003293 00000-0 23920-3 0 9996 2 60237 61.9903 121.3850 0055993 98.1617 262.5831 15.04830776 79409 Curium One 1 60242U 24128H 25354.35002585 .00007312 00000-0 45698-3 0 9996 2 60242 61.9795 117.6267 0055552 94.6260 266.1182 15.09026565 79430 ROBUSTA-3A 1 60243U 24128J 25354.82089053 .00005751 00000-0 36940-3 0 9999 2 60243 61.9869 117.5374 0055799 92.4549 268.2934 15.08334321 79484 CatSat 1 60246U 24125J 25354.14333024 .00024888 00000-0 59115-3 0 9995 2 60246 97.2301 201.4502 0034386 118.0602 242.4129 15.41038953 79669 HYPERVIEW-1G (RS66S) 1 61772U 24199AP 25354.88676116 .00030473 00000-0 57355-3 0 9995 2 61772 97.3199 224.4271 0008392 200.5946 159.4968 15.48456066106872 AO-123 1 61781U 24199AY 25354.83700623 .00007169 00000-0 23317-3 0 9998 2 61781 97.3241 220.1989 0013151 223.1103 136.9110 15.32107644106589 ZIMSAT 2 1 61783U 24199BA 25353.53009689 .00207553 00000-0 12962-2 0 9992 2 61783 97.3076 226.8459 0004892 157.8032 202.3446 15.76266785110077 HADES-R (SO-124) 1 62690U 25009CK 25353.50180803 .00139512 00000-0 16338-2 0 9996 2 62690 97.3864 76.3943 0001150 263.7674 96.3452 15.61075237 51839 HYDRA-T 1 62692U 25009CM 25354.17548695 .00149370 00000-0 15897-2 0 9991 2 62692 97.3868 77.3228 0001929 284.6487 75.4557 15.63518112 51953 JINJUSat 1B 1 63210U 25052A 25354.65002644 .00010993 00000-0 41827-3 0 9999 2 63210 97.4205 246.7571 0004779 27.0564 333.0923 15.26922874 42795 NUSHSAT 1 1 63211U 25052B 25354.70528788 .00012451 00000-0 45785-3 0 9996 2 63211 97.4186 246.9446 0004918 30.7123 329.4403 15.28018149 42812 TEVEL2-4 1 63213U 25052D 25354.64418270 .00011884 00000-0 44642-3 0 9995 2 63213 97.4108 246.4193 0004640 46.1717 313.9905 15.27325528 42797 TEVEL2-5 1 63214U 25052E 25354.65003458 .00011839 00000-0 44578-3 0 9993 2 63214 97.4105 246.4115 0004617 46.5306 313.6316 15.27248696 42794 TEVEL2-6 1 63215U 25052F 25354.65758705 .00011989 00000-0 45204-3 0 9999 2 63215 97.4107 246.4071 0004690 45.6743 314.4879 15.27201298 42794 TEVEL2-1 1 63217U 25052H 25354.43983044 .00011877 00000-0 45242-3 0 9991 2 63217 97.4081 245.9953 0005130 55.2100 304.9621 15.26862229 42755 TEVEL2-3 1 63218U 25052J 25354.17677809 .00011888 00000-0 45259-3 0 9992 2 63218 97.4083 245.7401 0005163 55.8382 304.3346 15.26878860 42710 TEVEL2-2 1 63219U 25052K 25354.44059172 .00012253 00000-0 46660-3 0 9994 2 63219 97.4083 245.9965 0005102 55.6601 304.5120 15.26864733 42753 TEVEL2-9 1 63237U 25052AD 25354.67363464 .00010091 00000-0 40234-3 0 9990 2 63237 97.4142 245.9231 0009085 60.1065 300.1074 15.25356468 42754 TEVEL2-7 1 63238U 25052AE 25354.42591503 .00010646 00000-0 42628-3 0 9996 2 63238 97.4148 245.6501 0009236 60.9778 299.2385 15.25196284 42712 TEVEL2-8 1 63239U 25052AF 25354.69411517 .00010031 00000-0 40211-3 0 9996 2 63239 97.4146 245.9001 0009220 60.3043 299.9112 15.25176197 42751 HYDRA-W 1 63490U 25052BL 25354.48952649 .00050506 00000-0 11638-2 0 9999 2 63490 97.4064 248.3860 0011153 52.1126 308.1128 15.42372054 42915 HADES-ICM (SO-125) 1 63492U 25052BN 25354.49448221 .00044730 00000-0 11053-2 0 9991 2 63492 97.4083 248.1003 0011191 53.4081 306.8193 15.40288790 42896 Dragonfly 1 65729U 98067XH 25354.48802592 .00147536 00000-0 98006-3 0 9998 2 65729 51.6254 96.0114 0007438 325.9909 34.0612 15.74448787 14381 RSP-03 1 65732U 98067XL 25353.42469933 .00106087 00000-0 84699-3 0 9992 2 65732 51.6265 102.4221 0005658 294.5755 65.4652 15.70283101 14217 GHS-01 1 65733U 98067XM 25354.48693375 .00197582 00000-0 11085-2 0 9997 2 65733 51.6277 95.2602 0008545 329.3713 30.6788 15.78117355 14402 BOTAN 1 65942U 98067XP 25354.57898423 .00082185 00000-0 83574-3 0 9995 2 65942 51.6283 99.6415 0002951 304.2475 55.8240 15.64441775 11098 BEE-1000 1 66650U 25274A 25354.80205682 .00001026 00000-0 10751-3 0 9999 2 66650 97.7403 281.8419 0010777 221.4492 138.5910 14.91685415 3604 SPIRONE 1 66657U 25274H 25354.78957845 .00001455 00000-0 14714-3 0 9997 2 66657 97.7400 281.8569 0010825 245.5700 114.4390 14.92494728 3608 K-HERO 1 66660U 25274L 25354.78137397 .00001197 00000-0 12043-3 0 9999 2 66660 97.7407 281.8694 0012654 251.1884 108.7963 14.93000618 3600 SNUGLITE-III DURI 1 66661U 25274M 25354.77904219 .00001429 00000-0 14230-3 0 9992 2 66661 97.7402 281.8718 0013262 252.4411 107.5360 14.93134387 3608 SilverSat 1 66909U 98067XV 25353.55080352 .00049748 00000-0 79912-3 0 9999 2 66909 51.6306 108.5226 0003839 268.6960 91.3590 15.52516520 2671 CEVROSAT1 1 98526U 25248E 25313.13142326 .00000000 00000-0 19360-3 0 02 2 98526 45.4084 218.4764 0001315 254.8982 242.1062 15.17981583 02 /EX